Time,B instrument,Bx,By,Bz,sigma B,Ion instrument,Status,Tp_par,Tp_perp,carrot,r_sun,clat,clong,earth_he_angle,n_p,vp_x,vp_y,vp_z,vth_p_par,vth_p_perp
1979-04-17 00:00:02,1,4.6037,2.79815,-13.2463,1.18418,1,1,54948.7,52866.0,1680,0.50445312,-6.4462709,112.27783,346.26221,28.6431,333.056,5.90221,-22.1976,30.1187,29.5424
1979-04-17 00:01:23,1,4.24107,3.30714,-12.4786,1.13426,1,1,63155.4,52308.3,1680,0.50444359,-6.446167,112.26709,346.26318,28.1472,335.39,6.79257,-23.6665,32.2896,29.3862
1979-04-17 00:02:44,1,2.17,-0.82,-14.5633,0.994328,1,1,48627.1,57728.1,1680,0.50443411,-6.446063,112.25659,346.2644,28.8721,328.688,-5.95302,-24.1585,28.3333,30.8711
1979-04-17 00:04:05,1,9.25536,1.55,-12.6536,0.930607,1,1,53294.7,64500.5,1680,0.50441509,-6.4458551,112.24707,346.2666,29.8805,341.124,1.36573,-16.368,29.662,32.6317
1979-04-17 00:14:58,1,0.721053,11.1368,-9.06842,1.05872,1,1,92548.4,73294.9,1680,0.5043202,-6.4448156,112.15674,346.27783,33.9112,328.461,22.3707,-14.765,39.0879,34.7852
1979-04-17 00:16:20,1,6.0037,9.51111,-9.67778,2.73017,1,1,104673.0,94970.3,1680,0.50430119,-6.4446077,112.14722,346.28003,38.5279,349.107,9.20725,-14.1607,41.5695,39.596
1979-04-17 00:17:41,1,1.12542,12.4847,-4.17966,4.50823,1,1,117915.0,72255.5,1680,0.50429171,-6.4445038,112.13672,346.28125,35.8986,322.533,27.7803,-3.29481,44.1206,34.5377
1979-04-17 00:19:02,1,-1.94038,11.3154,-5.36731,1.02589,1,1,116518.0,87269.7,1680,0.5042727,-6.4442959,112.1272,346.28345,37.6652,320.917,29.8081,0.334014,43.8585,37.9568
1979-04-17 00:20:23,1,-1.79508,11.8279,-5.01475,2.14617,1,1,154521.0,90415.1,1680,0.50426322,-6.4441919,112.11279,346.28467,39.654,324.781,22.7066,-6.9685,50.507,38.6348
1979-04-17 00:21:44,1,-7.19259,14.3389,1.57778,0.962238,1,1,71818.8,73790.7,1680,0.50425375,-6.444088,112.10205,346.28564,34.1152,309.94,32.9179,7.41268,34.4332,34.9027
1979-04-17 00:23:05,1,-6.90755,13.9,3.43774,0.799782,1,1,82687.6,78750.3,1680,0.50423473,-6.4438801,112.09253,346.28784,36.0891,311.397,30.6122,15.7368,36.9469,36.0565
1979-04-17 00:24:26,1,-6.29455,14.3073,-0.898182,0.895801,1,1,70533.1,71773.7,1680,0.50422525,-6.4437761,112.08203,346.28906,31.0109,310.811,34.4842,8.88734,34.1236,34.4224
1979-04-17 00:25:47,1,-6.69333,14.056,-0.986667,1.73781,1,1,90135.9,68344.3,1680,0.50421578,-6.4436722,112.07153,346.29028,32.8586,310.696,27.9082,0.118451,38.5751,33.5899
1979-04-17 00:27:08,1,-3.98868,11.8755,-2.06415,2.29031,1,1,106058.0,72564.3,1680,0.50419676,-6.4434643,112.06201,346.29248,34.2642,311.505,33.2826,0.0665225,41.8437,34.6114
1979-04-17 00:28:29,1,-4.46981,10.7906,-3.95283,2.45944,1,1,115410.0,81624.7,1680,0.50418729,-6.4433603,112.04736,346.29346,43.2948,315.843,33.7279,-1.69431,43.6496,36.7087
1979-04-17 00:29:50,1,-1.77414,11.7621,-3.65172,2.15652,1,1,80423.2,77060.1,1680,0.50417781,-6.4432564,112.03687,346.29468,38.7508,318.495,33.4137,-11.405,36.4375,35.6675
1979-04-17 00:31:11,1,-1.08182,12.3527,-2.08,6.07778,1,1,142921.0,73283.1,1680,0.50415879,-6.4430485,112.02734,346.29688,39.5998,317.835,31.9513,10.1492,48.5741,34.7824
1979-04-17 00:32:32,1,1.78909,11.94,-5.64182,1.48935,1,1,106720.0,71730.8,1680,0.50414932,-6.4429445,112.01685,346.2981,38.4381,327.608,32.6347,-14.0328,41.9741,34.4121
1979-04-17 00:33:53,1,-11.1917,9.71806,2.79444,0.777275,1,1,65748.2,76580.0,1680,0.50413984,-6.4428406,112.0061,346.29907,31.4697,297.522,29.4104,8.78053,32.9458,35.5562
1979-04-17 00:35:14,1,-9.76154,11.1128,1.85897,0.707655,1,1,68922.6,60844.8,1680,0.50412083,-6.4426327,111.99683,346.30151,32.8993,300.916,33.5341,8.31904,33.7317,31.6935
1979-04-17 00:36:35,1,-7.30857,11.36,-0.52,4.21693,1,1,109562.0,69107.5,1680,0.50411135,-6.4425287,111.98218,346.30249,37.4123,309.454,32.5477,-3.69604,42.5293,33.777
1979-04-17 00:37:56,1,-7.21471,14.1574,-0.129412,0.860684,1,1,77777.0,59091.6,1680,0.50410187,-6.4424248,111.97168,346.30371,30.7257,309.974,32.3125,2.69633,35.833,31.2335
1979-04-17 00:39:17,1,-6.32881,13.0644,-3.47797,2.28591,1,1,98934.7,62707.8,1680,0.50408286,-6.4422169,111.96216,346.30591,31.9164,308.13,31.9176,-1.49415,40.414,32.175
1979-04-17 00:40:38,1,-10.2964,10.4618,3.79091,0.977702,1,1,69854.7,61976.2,1680,0.50407338,-6.4421129,111.95166,346.30713,31.5296,300.584,25.0997,13.6436,33.9591,31.9868
1979-04-17 00:41:59,1,-7.23704,11.7019,1.55741,1.81704,1,1,95860.1,66912.8,1680,0.50406384,-6.442009,111.94092,346.30811,33.3067,307.127,33.2515,1.66713,39.7811,33.2363
1979-04-17 00:43:20,1,-9.24902,10.9294,0.515686,2.28645,1,1,83540.2,61842.7,1680,0.50404489,-6.4418011,111.92749,346.3103,27.3129,303.903,27.8816,5.27053,37.1369,31.9523
1979-04-17 00:46:02,1,-8.88793,10.1328,1.45345,0.537132,1,1,85521.2,69110.8,1680,0.5040164,-6.4414892,111.90747,346.31372,31.8856,303.621,28.0521,10.5057,37.5746,33.7778
1979-04-17 00:47:23,1,-7.52817,10.8324,0.178873,1.89624,1,1,99117.2,73091.9,1680,0.50400692,-6.4413853,111.89697,346.31494,35.0521,305.123,26.681,7.3579,40.4513,34.737
1979-04-17 00:48:44,1,-8.55,10.7521,1.56458,0.654306,1,1,97213.1,66865.7,1680,0.50399745,-6.4412813,111.88623,346.31592,33.7587,303.795,26.5492,7.05549,40.0609,33.2246
1979-04-17 00:50:05,1,-9.45065,10.2857,2.26623,0.893548,1,1,84767.1,75191.7,1680,0.50397843,-6.4410734,111.87695,346.31836,31.9238,300.622,25.5886,10.0427,37.4086,35.2325
1979-04-17 00:51:26,1,-8.17059,10.5529,3.46078,0.73504,1,1,93227.3,88546.4,1680,0.50396895,-6.4409695,111.8623,346.31934,35.526,304.044,24.5825,14.0087,39.231,38.2334
1979-04-17 00:52:47,1,-10.0426,3.53889,8.94259,1.59671,1,1,99083.7,78854.7,1680,0.50395948,-6.4408655,111.85181,346.32056,35.8726,301.413,6.25647,26.4678,40.4444,36.0804
1979-04-17 00:54:08,1,-11.9667,5.81765,2.1098,2.58462,1,1,93527.8,83223.6,1680,0.50394046,-6.4406576,111.84229,346.32275,31.7908,297.003,11.7782,10.483,39.2942,37.0665
1979-04-17 00:55:29,1,-11.8672,5.14925,6.00896,1.4149,1,1,84808.4,87447.2,1680,0.50393099,-6.4405537,111.83179,346.32397,34.8708,294.441,11.3422,16.3195,37.4177,37.9954
1979-04-17 00:56:50,1,-11.312,6.65,3.94,2.01106,1,1,110101.0,73695.1,1680,0.50392145,-6.4404497,111.82104,346.32495,33.6435,295.727,16.4621,1.75478,42.6337,34.8801
1979-04-17 00:58:11,1,-11.6127,7.58889,0.111111,0.69046,1,1,95263.6,71146.7,1680,0.50390249,-6.4402428,111.81152,346.32715,35.5815,295.731,15.9893,2.4727,39.6571,34.2717
1979-04-17 00:59:32,1,-11.3531,7.77143,2.01429,0.63827,1,1,86225.0,70002.4,1680,0.50389302,-6.4401379,111.79712,346.32837,36.1605,296.688,15.3589,7.27025,37.7289,33.9949
1979-04-17 01:00:53,1,-11.5185,7.07407,4.31852,0.707718,1,1,87813.3,62149.6,1680,0.50388348,-6.4400339,111.78662,346.32959,33.7007,297.841,13.9537,12.28,38.0748,32.0315
1979-04-17 01:02:14,1,-12.1647,7.71569,4.76078,0.474145,1,1,71211.8,62724.3,1680,0.50386453,-6.4398251,111.7771,346.33179,31.2433,300.667,12.2938,12.7002,34.2873,32.1792
1979-04-17 01:03:35,1,-12.1226,8.0717,5.27547,1.38359,1,1,63615.7,61869.4,1680,0.50385499,-6.4397211,111.76636,346.33276,30.3859,298.765,14.7782,14.9276,32.4071,31.9592
1979-04-17 01:06:17,1,-13.8226,8.11887,6.36981,0.926402,1,1,67266.6,59321.8,1680,0.50382656,-6.4394073,111.74634,346.33618,29.8929,296.315,13.8933,10.641,33.3241,31.2943
1979-04-17 01:07:38,1,-14.3078,5.13137,7.30392,1.98547,1,1,49486.2,61145.8,1680,0.50381702,-6.4393024,111.73193,346.3374,29.2446,296.004,6.24586,16.7045,28.5825,31.7718
1979-04-17 01:08:59,1,-14.1481,4.17115,8.21731,0.70644,1,1,52320.8,59128.8,1680,0.50380754,-6.4391975,111.72144,346.33862,30.2618,295.674,7.29505,15.6074,29.3897,31.2433
1979-04-17 01:10:20,1,-14.051,6.38627,7.68627,0.730139,1,1,51760.7,59967.3,1680,0.50378853,-6.4389887,111.71191,346.34082,29.994,295.451,12.1477,15.0357,29.232,31.4641
1979-04-17 01:11:41,1,-14.8943,5.79245,4.48491,2.58914,1,1,61028.6,66826.7,1680,0.50377905,-6.4388838,111.70117,346.3418,33.5797,295.775,12.5071,11.3616,31.7413,33.2149
1979-04-17 01:13:02,1,-10.2607,3.1125,10.2196,2.67336,1,1,81545.2,71184.1,1680,0.50376004,-6.4386749,111.69189,346.34424,36.6912,308.658,8.34651,24.7238,36.6908,34.2807
1979-04-17 01:14:23,1,-5.2614,2.40702,13.5684,0.905494,1,1,106544.0,57876.3,1680,0.50375056,-6.43857,111.68115,346.34521,39.3442,314.521,0.225315,30.0969,41.9395,30.9107
1979-04-17 01:15:44,1,-5.91471,4.47647,13.25,1.18432,1,1,102379.0,60208.9,1680,0.50374103,-6.4384661,111.66675,346.34644,38.2342,314.175,3.11423,27.8481,41.1115,31.5274
1979-04-17 01:17:05,1,-7.25091,4.11636,12.5309,0.948014,1,1,91858.9,63844.2,1680,0.50372207,-6.4382572,111.65723,346.34863,38.4952,310.253,6.38104,26.0322,38.942,32.4652
1979-04-17 01:18:26,1,-7.27843,4.07451,12.049,1.72394,1,1,100048.0,59958.7,1680,0.50371253,-6.4381523,111.64673,346.34985,38.1441,310.727,3.2619,24.655,40.6407,31.4618
1979-04-17 01:19:47,1,-4.52286,1.66714,13.03,1.4464,1,1,114775.0,60795.9,1680,0.50370306,-6.4380474,111.63623,346.35107,40.9131,320.273,-2.33994,29.9692,43.5292,31.6807
1979-04-17 01:21:08,1,-5.75818,2.36364,12.1655,1.00295,1,1,119660.0,56450.5,1680,0.5036841,-6.4378386,111.62671,346.35327,37.6666,315.629,0.172696,22.0623,44.4459,30.5275
1979-04-17 01:22:29,1,-6.34444,2.65,12.6889,1.35743,1,1,96885.4,56948.2,1680,0.50367457,-6.4377337,111.61597,346.35425,36.3413,312.449,3.23272,27.2663,39.9933,30.6618
1979-04-17 01:23:50,1,-7.36809,3.95957,12.5957,1.8563,1,1,97383.0,64696.5,1680,0.50366509,-6.4376297,111.60156,346.35547,40.1862,310.703,7.90897,26.7051,40.0958,32.6812
1979-04-17 01:25:11,1,-7.99804,3.52353,12.8098,0.821365,1,1,93505.6,47836.1,1680,0.50364608,-6.4374199,111.59204,346.35767,34.9733,308.025,5.87181,26.0321,39.2895,28.1019
1979-04-17 01:26:32,1,-7.2974,3.21039,15.2169,0.912533,1,1,69068.5,54297.3,1680,0.5036366,-6.4373159,111.58154,346.35889,30.6203,307.545,5.22897,32.5161,33.7674,29.9397
1979-04-17 01:27:53,1,-10.0259,6.19444,11.0333,1.73447,1,1,78696.8,53334.5,1680,0.50362706,-6.437211,111.57104,346.36011,35.8852,301.595,9.14172,19.8513,36.0443,29.673
1979-04-17 01:29:14,1,-9.52941,5.21373,11.4039,1.41106,1,1,105923.0,55495.0,1680,0.50360811,-6.4370022,111.56152,346.3623,34.3058,306.414,8.02034,23.5285,41.817,30.2681
1979-04-17 01:30:35,1,-12.2,8.92642,8.09245,1.10129,1,1,51960.3,55912.7,1680,0.50359857,-6.4368973,111.55103,346.36353,28.6561,298.069,17.028,18.2752,29.2883,30.3818
1979-04-17 01:33:17,1,-12.0927,8.55273,9.03273,0.487205,1,1,54526.2,54472.7,1680,0.50357014,-6.4365835,111.52686,346.3667,28.8669,299.236,17.6027,19.4614,30.0027,29.988
1979-04-17 01:34:38,1,-11.8231,8.08615,9.57077,0.92543,1,1,52174.0,53206.9,1680,0.5035606,-6.4364786,111.51636,346.36792,28.0584,299.474,17.9736,21.398,29.3484,29.6375
1979-04-17 01:35:59,1,-11.9692,9.04231,5.88462,0.978081,1,1,54834.0,55184.9,1680,0.50355113,-6.4363747,111.50586,346.36914,26.9321,297.576,21.248,16.4265,30.0873,30.1834
1979-04-17 01:37:20,1,-11.5245,8.21698,5.66981,1.03381,1,1,50842.8,58857.8,1680,0.50353211,-6.4361649,111.49634,346.37134,27.4408,293.154,19.2052,15.0842,28.9716,31.1717
1979-04-17 01:38:41,1,-13.1382,8.15273,5.26182,0.575195,1,1,54927.5,52848.5,1680,0.50352263,-6.4360609,111.48584,346.37256,26.5979,295.915,16.8721,11.841,30.1129,29.5375
1979-04-17 01:40:02,1,-13.3241,8.47778,4.31111,0.838267,1,1,49742.2,54118.9,1680,0.50349939,-6.5397444,111.36288,346.26523,26.5219,296.218,17.359,10.8235,28.6563,29.8905
1979-04-17 01:41:23,1,-13.6057,7.79057,4.71132,0.51992,1,1,53564.8,51241.2,1680,0.50349414,-6.4357471,111.46167,346.37573,26.7487,295.383,16.9667,9.57335,29.737,29.0849
1979-04-17 01:42:44,1,-13.8607,7.51607,4.66071,0.640907,1,1,53140.6,55376.2,1680,0.50348461,-6.4356422,111.45117,346.37695,27.6995,295.589,16.6033,11.2456,29.6191,30.2357
1979-04-17 01:45:26,1,-14.7679,7.38491,2.52264,0.621262,1,1,42595.4,54250.9,1680,0.50345612,-6.4353285,111.43115,346.38037,27.182,291.665,20.4323,4.11825,26.5179,29.9269
1979-04-17 01:46:47,1,-13.575,8.64231,3.4,0.801494,1,1,56195.2,51950.9,1680,0.50344664,-6.4352245,111.41675,346.38159,28.8588,297.589,21.479,8.75846,30.4584,29.2856
1979-04-17 01:48:08,1,-14.7075,7.84717,2.37547,0.573094,1,1,45579.4,52024.8,1680,0.50342768,-6.4350147,111.40723,346.38379,26.56,295.008,18.2364,7.64946,27.431,29.3065
1979-04-17 01:49:29,1,-14.5193,8.23333,1.74561,0.54671,1,1,50284.0,49059.7,1680,0.50341815,-6.4349108,111.39673,346.38501,26.3229,293.31,17.8124,4.50897,28.8119,28.459
1979-04-17 01:50:50,1,-14.4556,8.02037,1.16481,0.635145,1,1,47136.8,52074.0,1680,0.50340867,-6.4348059,111.38599,346.38599,26.4481,292.351,19.4667,1.78068,27.8958,29.3203
1979-04-17 01:53:32,1,-13.3245,9.54528,2.95283,0.551182,1,1,50159.6,49244.9,1680,0.50338018,-6.4344921,111.36597,346.3894,26.3091,297.11,21.0191,6.32371,28.7763,28.5127
1979-04-17 01:54:53,1,-13.5365,9.06923,3.1,0.468454,1,1,55706.6,49626.8,1680,0.50337064,-6.4343872,111.35156,346.39063,27.6687,295.741,18.6819,6.51631,30.3257,28.623
1979-04-17 01:56:14,1,-12.7673,9.57091,3.62,0.894656,1,1,52311.7,53973.1,1680,0.50335169,-6.4341784,111.34204,346.39282,26.6767,296.525,24.063,8.17848,29.3871,29.8502
1979-04-17 01:57:35,1,-14.3283,7.31698,-0.166038,1.33389,1,1,59822.1,52383.8,1680,0.50334215,-6.4340734,111.33154,346.39404,29.3192,292.049,18.3174,-1.24893,31.426,29.4074
1979-04-17 01:58:56,1,-13.84,6.874,-2.604,0.823352,1,1,58802.7,53795.9,1680,0.50333267,-6.4339695,111.3208,346.39502,29.3333,293.214,17.8062,-5.7965,31.1571,29.8011
1979-04-17 02:00:17,1,-13.8302,4.29245,-4.01132,1.23473,1,1,63125.7,47976.5,1680,0.50331372,-6.4337606,111.31152,346.39746,29.0443,293.727,11.9315,-9.05002,32.282,28.1431
1979-04-17 02:02:59,1,-13.8173,7.98077,0.461538,0.421952,1,1,62723.4,48535.8,1680,0.50329471,-6.4335499,111.28638,346.39966,30.1722,292.867,18.2039,-2.30687,32.179,28.3067
1979-04-17 02:04:20,1,-12.6809,7.56596,0.717021,1.65892,1,1,49736.7,57516.8,1680,0.50327569,-6.4333391,111.27686,346.40186,32.2748,289.637,20.8809,-1.44197,28.6547,30.8145
1979-04-17 02:05:42,1,-12.6192,6.57115,1.62308,0.914202,1,1,53518.6,58354.8,1680,0.50326616,-6.4332342,111.26636,346.40308,31.7978,286.96,22.5166,1.02288,29.7242,31.0382
1979-04-17 02:07:02,1,-13.3055,7.27455,0.498182,0.569251,1,1,58613.2,54100.1,1680,0.5032472,-6.4330244,111.25684,346.40527,31.3493,288.737,23.3592,-2.38302,31.1068,29.8853
1979-04-17 02:08:23,1,-13.0686,8.22549,-1.74118,0.791501,1,1,63285.2,56416.2,1680,0.50323766,-6.4329185,111.24634,346.40649,31.2809,291.906,21.6363,-5.34116,32.3228,30.5183
1979-04-17 02:09:44,1,-13.662,6.772,-1.408,0.688991,1,1,60248.2,55366.2,1680,0.50322819,-6.4328136,111.2356,346.40747,31.1794,289.287,21.1196,-4.37123,31.5377,30.2329
1979-04-17 02:11:05,1,-12.4604,7.75849,-1.36981,0.665131,1,1,83227.9,52917.0,1680,0.50320917,-6.4326029,111.22217,346.40967,34.0045,296.175,18.7591,-4.64262,37.0674,29.5567
1979-04-17 02:12:26,1,-13.6061,6.10408,-1.66531,0.811378,1,1,65210.5,52910.5,1680,0.5031997,-6.432498,111.21167,346.41089,31.8436,292.723,15.6369,-6.35086,32.8108,29.5549
1979-04-17 02:13:47,1,-13.8907,6.38889,-2.11852,0.407344,1,1,60948.0,49347.7,1680,0.50319016,-6.4323931,111.20117,346.41211,31.1263,291.766,16.5254,-7.53719,31.7203,28.5425
1979-04-17 02:15:08,1,-10.4314,7.31961,-5.08235,2.03076,1,1,68020.1,52113.8,1680,0.50317121,-6.4321823,111.19165,346.41431,32.0602,296.628,20.3877,-16.7059,33.5102,29.3315
1979-04-17 02:16:29,1,-11.8,6.81321,-3.58679,0.981926,1,1,80350.7,53812.4,1680,0.50316167,-6.4320774,111.18115,346.41553,30.9573,291.698,18.3057,-9.44348,36.4211,29.8057
1979-04-17 02:17:50,1,-10.5185,7.32222,-5.46481,1.24646,1,1,85408.6,62103.8,1680,0.50315219,-6.4319725,111.17041,346.4165,37.5144,296.047,20.2611,-14.7303,37.5499,32.0197
1979-04-17 02:19:11,1,-12.9078,7.3451,-1.70392,0.806862,1,1,67173.7,55392.9,1680,0.50313318,-6.4317617,111.15723,346.41895,33.5183,291.009,20.1589,-7.43035,33.301,30.2402
1979-04-17 02:20:32,1,-11.8653,6.72653,-3.49388,0.743882,1,1,81176.9,47688.8,1680,0.50312364,-6.4316568,111.14648,346.41992,32.7277,292.781,15.1187,-7.94586,36.6078,28.0586
1979-04-17 02:21:53,1,-14.288,6.12,-2.072,0.693882,1,1,35910.2,37979.7,1680,0.50311416,-6.4315519,111.13599,346.42114,35.1328,283.602,16.0308,-3.485,24.3482,25.04
1979-04-17 02:23:14,1,-14.6347,5.73265,-1.42041,0.644575,1,1,35400.9,42192.6,1680,0.50309515,-6.4313412,111.12646,346.42334,34.8072,282.687,18.0375,0.84899,24.1749,26.3922
1979-04-17 02:24:35,1,-15.1235,5.21765,-1.47451,0.400067,1,1,38338.4,42122.2,1680,0.50308567,-6.4312363,111.11597,346.42456,34.7745,281.822,15.0581,1.94695,25.1579,26.3702
1979-04-17 02:25:56,1,-14.8208,5.08542,-0.708333,0.613997,1,1,40351.2,42566.2,1680,0.50307614,-6.4311304,111.10522,346.42554,36.0505,283.698,14.7279,3.07748,25.8099,26.5088
1979-04-17 02:28:38,1,-14.6658,6.4411,-0.931507,0.627657,1,1,37931.0,37253.6,1680,0.50304765,-6.4308157,111.0813,346.42896,35.2661,284.654,21.2898,1.34415,25.0239,24.7994
1979-04-17 02:29:59,1,-13.552,5.91,-0.688,1.45645,1,1,43898.8,40215.2,1680,0.50303817,-6.4307098,111.0708,346.43018,35.8098,285.286,16.7855,5.98485,26.9206,25.7664
1979-04-17 02:31:20,1,-13.6776,6.78571,0.146939,0.649762,1,1,42284.4,42840.9,1680,0.50301915,-6.4305,111.06128,346.43237,35.986,285.324,22.0286,3.96371,26.4209,26.5942
1979-04-17 02:32:41,1,-14.7396,6.53125,1.31667,0.799539,1,1,37458.0,44519.5,1680,0.50300968,-6.4303942,111.05078,346.43359,34.639,283.421,19.1957,7.32871,24.8674,27.1102
1979-04-17 02:34:02,1,-15.0016,5.28889,2.96508,0.67724,1,1,34287.1,45554.9,1680,0.50299066,-6.4301844,111.04126,346.43579,34.3593,281.663,18.3751,9.77208,23.7916,27.4237
1979-04-17 02:35:23,1,-15.1587,5.124,1.764,0.88943,1,1,33986.8,41657.8,1680,0.50298119,-6.4300795,111.02686,346.43701,34.1676,281.506,17.865,9.71472,23.6872,26.2244
1979-04-17 02:36:44,1,-15.1396,4.51667,3.69375,0.818148,1,1,35149.0,42119.1,1680,0.50297165,-6.4299736,111.01611,346.43799,34.5631,283.169,16.6671,12.0963,24.0887,26.3692
1979-04-17 02:38:05,1,-14.7431,4.75098,1.82941,0.846659,1,1,35740.2,44839.5,1680,0.50295264,-6.4297638,111.00684,346.44043,35.164,282.679,17.1329,10.8064,24.2905,27.2075
1979-04-17 02:39:26,1,-14.0265,3.94082,4.84898,1.71605,1,1,32876.9,50905.6,1680,0.50294316,-6.4296579,110.99609,346.44141,34.7433,283.617,14.6462,15.5574,23.2972,28.9895
1979-04-17 02:40:47,1,-14.11,4.202,4.67,0.782046,1,1,40262.2,48944.4,1680,0.50293362,-6.429553,110.9856,346.44263,31.74,285.684,15.6553,11.9202,25.7814,28.4256
1979-04-17 02:42:08,1,-14.6,4.20952,2.65714,0.777344,1,1,45497.3,50923.0,1680,0.50291467,-6.4293432,110.97217,346.44482,33.395,285.51,17.7029,9.36655,27.4063,28.9944
1979-04-17 02:42:57,1,-14.1239,4.3,4.18478,0.645773,1,1,42307.8,50334.2,1680,0.50291467,-6.4293432,110.96826,346.44482,31.5758,284.57,19.1517,-0.348088,26.4282,28.8263
1979-04-17 02:43:29,1,-13.3109,3.93455,6.83273,0.777863,1,1,50527.7,59057.8,1680,0.50290513,-6.4292374,110.96167,346.44604,34.6818,289.186,16.4414,11.5656,28.8817,31.2246
1979-04-17 02:44:50,1,-11.222,3.022,10.432,1.11392,1,1,50048.6,56633.0,1680,0.50289565,-6.4291325,110.95093,346.44702,33.7836,292.79,13.678,21.3876,28.7444,30.5769
1979-04-17 02:46:11,1,-12.0373,3.34314,9.33137,0.521952,1,1,55243.2,54820.0,1680,0.50287664,-6.4289227,110.94165,346.44946,33.3103,290.169,14.0627,17.5099,30.1993,30.0834
1979-04-17 02:47:32,1,-13.2717,2.06604,7.58113,0.664285,1,1,45369.3,53022.9,1680,0.50286716,-6.4288168,110.93091,346.45044,32.2146,287.192,6.29625,14.6044,27.3677,29.5862
1979-04-17 02:48:53,1,-13.736,1.504,7.318,0.510846,1,1,43879.3,49908.7,1680,0.50285763,-6.4287119,110.92041,346.45166,34.0362,287.19,13.6468,17.3866,26.9146,28.7042
1979-04-17 02:50:14,1,-13.7959,3.56122,6.2551,0.355618,1,1,37504.3,52065.3,1680,0.50283867,-6.4285011,110.90698,346.45386,33.0819,286.588,14.5466,15.2451,24.8827,29.3179
1979-04-17 02:51:35,1,-13.5571,2.95306,6.94898,0.852421,1,1,41977.3,52325.4,1680,0.50282913,-6.4283962,110.89648,346.45508,34.6115,286.485,16.1802,17.8286,26.3248,29.391
1979-04-17 02:52:56,1,-13.3621,1.92931,8.04655,1.63813,1,1,43957.4,53953.8,1680,0.50281966,-6.4282913,110.88574,346.45605,34.2091,287.4,12.0869,17.8062,26.9385,29.8448
1979-04-17 02:54:17,1,-14.3986,4.01014,5.07391,0.846354,1,1,34953.9,44035.6,1680,0.50280064,-6.4280806,110.87646,346.4585,31.2532,284.8,16.6491,12.2584,24.0218,26.9625
1979-04-17 02:55:38,1,-14.75,2.99375,4.88333,0.690634,1,1,39970.9,46412.8,1680,0.50279111,-6.4279757,110.86572,346.45947,33.1067,284.544,15.1948,13.2243,25.688,27.6807
1979-04-17 02:56:59,1,-14.6569,4.39216,4.49412,0.691832,1,1,36453.3,45301.9,1680,0.50278163,-6.4278708,110.85522,346.46069,34.8206,285.556,17.7574,11.0403,24.5316,27.3474
1979-04-17 02:58:20,1,-14.4816,5.29592,3.40408,0.503292,1,1,39432.8,45837.5,1680,0.50276262,-6.42766,110.8418,346.46289,33.8666,285.372,19.5071,9.01212,25.5145,27.5086
1979-04-17 02:59:41,1,-14.5037,5.84074,1.72593,0.870433,1,1,39504.4,43490.2,1680,0.50275314,-6.4275551,110.8313,346.46411,34.5165,284.73,18.7051,5.38752,25.5376,26.795
1979-04-17 03:01:02,1,-14.5433,6.05224,0.143284,0.981441,1,1,38642.6,43984.5,1680,0.50273412,-6.4273443,110.82178,346.46631,34.2569,284.138,19.2257,2.75459,25.2576,26.9468
1979-04-17 03:02:23,1,-15.0627,4.85686,0.866667,0.597997,1,1,38705.0,43950.7,1680,0.50271666,-6.5315509,110.70221,346.35846,32.6861,284.426,17.5875,-0.665116,25.2779,26.9365
1979-04-17 03:04:33,-1,nan,nan,nan,nan,1,3,nan,nan,1680,0.50270563,-6.4270267,110.79395,346.46973,nan,285.728,18.1196,6.78985,nan,nan
1979-04-17 03:26:09,-1,nan,nan,nan,nan,1,3,nan,nan,1680,0.50249654,-6.4246988,110.61987,346.49487,nan,280.247,17.9318,-1.17026,nan,nan
1979-04-17 03:47:45,-1,nan,nan,nan,nan,1,3,nan,nan,1680,0.50229692,-6.4224768,110.44458,346.5188,nan,279.302,18.5265,-3.15378,nan,nan
1979-04-17 04:09:21,-1,nan,nan,nan,nan,1,3,nan,nan,1680,0.50208783,-6.4201431,110.27441,346.54395,nan,280.573,18.2115,-1.22648,nan,nan
1979-04-17 04:30:57,-1,nan,nan,nan,nan,1,3,nan,nan,1680,0.50188816,-6.4179077,110.09912,346.56787,nan,289.942,17.2967,-4.57,nan,nan
1979-04-17 04:52:33,-1,nan,nan,nan,nan,1,3,nan,nan,1680,0.501679,-6.4155655,109.9248,346.59277,nan,277.723,25.6543,-4.63775,nan,nan
1979-04-17 05:14:09,-1,nan,nan,nan,nan,1,3,nan,nan,1680,0.50146985,-6.4132156,109.75464,346.61792,nan,289.115,19.1501,-9.70016,nan,nan
1979-04-17 05:35:45,-1,nan,nan,nan,nan,1,3,nan,nan,1680,0.50127012,-6.4109669,109.57959,346.64209,nan,287.325,23.834,-2.36014,nan,nan
1979-04-17 05:57:21,-1,nan,nan,nan,nan,1,3,nan,nan,1680,0.50106084,-6.4086113,109.40552,346.66724,nan,295.841,8.2346,-3.24758,nan,nan
1979-04-17 06:18:57,-1,nan,nan,nan,nan,1,3,nan,nan,1680,0.50086105,-6.406352,109.23047,346.69141,nan,286.693,12.9414,4.76785,nan,nan
1979-04-17 06:40:33,-1,nan,nan,nan,nan,1,3,nan,nan,1680,0.50065172,-6.4039831,109.06055,346.7168,nan,319.934,2.41632,-16.7178,nan,nan
1979-04-17 07:02:09,-1,nan,nan,nan,nan,1,3,nan,nan,1680,0.50044239,-6.4016123,108.88672,346.74219,nan,320.335,13.3724,-20.1347,nan,nan
1979-04-17 07:23:45,-1,nan,nan,nan,nan,1,3,nan,nan,1680,0.50024247,-6.3993368,108.71167,346.76636,nan,312.818,13.3567,-18.7489,nan,nan
1979-04-17 07:45:21,-1,nan,nan,nan,nan,1,3,nan,nan,1680,0.50003308,-6.3969526,108.53784,346.79175,nan,319.805,11.1698,-6.89817,nan,nan
1979-04-17 08:06:57,-1,nan,nan,nan,nan,1,3,nan,nan,1680,0.49983317,-6.3946733,108.3667,346.81592,nan,308.768,8.44092,-5.20079,nan,nan
1979-04-17 08:28:33,-1,nan,nan,nan,nan,1,3,nan,nan,1680,0.49962372,-6.3922768,108.19312,346.84155,nan,306.916,10.9172,-10.817,nan,nan
1979-04-17 08:50:09,-1,nan,nan,nan,nan,1,3,nan,nan,1680,0.49941427,-6.3898802,108.01929,346.86694,nan,312.138,16.4278,-11.8312,nan,nan
1979-04-17 09:11:45,-1,nan,nan,nan,nan,1,3,nan,nan,1680,0.49921423,-6.3875837,107.84839,346.89136,nan,313.44,14.5204,-20.2465,nan,nan
1979-04-17 09:33:21,-1,nan,nan,nan,nan,1,3,nan,nan,1680,0.49900472,-6.3851709,107.6748,346.91699,nan,313.231,22.2884,-18.8271,nan,nan
1979-04-17 09:54:57,-1,nan,nan,nan,nan,1,3,nan,nan,1680,0.49880463,-6.3828678,107.5,346.94141,nan,308.105,24.1924,-12.0978,nan,nan
1979-04-17 10:16:33,-1,nan,nan,nan,nan,1,3,nan,nan,1680,0.49859506,-6.3804455,107.32642,346.96704,nan,306.238,10.1854,-11.7834,nan,nan
1979-04-17 10:38:09,-1,nan,nan,nan,nan,1,3,nan,nan,1680,0.49838543,-6.3780203,107.15674,346.99268,nan,301.689,3.33024,-12.5793,nan,nan